Vigo, Spain

1:42 PM CEST on July 29, 2016 (GMT +0200)
Vigo

Weather History for LEVX - May, 2013

Change the Weather History Date:

Friday, May 10, 2013

  Actual Average Record
Temperature  
Mean Temperature 54 °F -  
Max Temperature 65 °F 66 °F 77 °F (2011)
Min Temperature 44 °F 51 °F 44 °F (2004)
Degree Days  
Heating Degree Days 10    
Growing Degree Days 4 (Base 50)    
Moisture  
Dew Point 43 °F    
Average Humidity 69    
Maximum Humidity 93    
Minimum Humidity 30    
Precipitation  
Precipitation 0.00 in 0.15 in - ()
Sea Level Pressure  
Sea Level Pressure 30.17 in    
Wind  
Wind Speed 7 mph ()    
Max Wind Speed 16 mph    
Max Gust Speed -    
Visibility 6.2 miles    
Events      
Averages and records for this station are not official NWS values.
T = Trace of Precipitation, MM = Missing Value Source: Averaged Metar Reports

Daily Weather History Graph

Daily Weather History Graph

Search for Another Location

Airport or City:

Trip Planner

Search our weather history database for the weather conditions in past years. The results will help you decide how hot, cold, wet, or windy it might be!

Date:

Astronomy

May. 10, 2013 Rise Set
Actual Time 7:18 AM CEST 9:43 PM CEST
Civil Twilight 6:47 AM CEST 10:15 PM CEST
Nautical Twilight 6:08 AM CEST 10:54 PM CEST
Astronomical Twilight 5:24 AM CEST 11:38 PM CEST
Moon 7:33 AM CEST (5/10) 10:21 PM CEST (5/10)
Length of Visible Light 15h 28m
Length of Day
14h 25m
New Moon, 0% of the Moon is Illuminated
May 10
New Moon
May 18
First Quarter
May 25
Full
May 31
Last Quarter
Jun 8
New

Hourly Weather History & Observations

Time (CEST) Temp. Windchill Dew Point Humidity Pressure Visibility Wind Dir Wind Speed Gust Speed Precip Events Conditions
12:00 AM 50.0 °F - 44.6 °F 82% 30.15 in 6.2 mi North 11.5 mph - N/A   Mostly Cloudy
12:30 AM 48.2 °F - 42.8 °F 82% 30.15 in 6.2 mi North 11.5 mph - N/A   Scattered Clouds
1:00 AM 48.2 °F - 42.8 °F 82% 30.18 in 6.2 mi North 10.4 mph - N/A   Mostly Cloudy
1:30 AM 48.2 °F - 42.8 °F 82% 30.18 in 6.2 mi North 10.4 mph - N/A   Scattered Clouds
2:00 AM 48 °F - 44 °F 82% 30.20 in 7 mi North 10.4 mph - -   Scattered Clouds
2:00 AM 46.4 °F 41.9 °F 42.8 °F 87% 30.18 in 6.2 mi NNE 9.2 mph - N/A   Scattered Clouds
2:30 AM 46.4 °F 41.9 °F 42.8 °F 87% 30.18 in 6.2 mi NNE 9.2 mph - N/A   Partly Cloudy
3:00 AM 44.6 °F 40.7 °F 42.8 °F 93% 30.18 in 6.2 mi NNE 6.9 mph - N/A   Partly Cloudy
3:30 AM 44.6 °F 40.7 °F 42.8 °F 93% 30.18 in 6.2 mi NNE 6.9 mph - N/A   Partly Cloudy
4:00 AM 44.6 °F - 42.8 °F 93% 30.15 in 6.2 mi Variable 2.3 mph - N/A   Mostly Cloudy
4:30 AM 44.6 °F - 42.8 °F 93% 30.15 in 6.2 mi Variable 2.3 mph - N/A   Mostly Cloudy
5:00 AM 44.6 °F 43.1 °F 42.8 °F 93% 30.15 in 6.2 mi NE 3.5 mph - N/A   Mostly Cloudy
5:30 AM 44.6 °F 43.1 °F 42.8 °F 93% 30.15 in 6.2 mi NNE 3.5 mph - N/A   Partly Cloudy
6:00 AM 42.8 °F - 41.0 °F 93% 30.15 in 6.2 mi Variable 1.2 mph - N/A   Partly Cloudy
6:30 AM 42.8 °F - 41.0 °F 93% 30.15 in 6.2 mi Variable 2.3 mph - N/A   Partly Cloudy
7:00 AM 42.8 °F 40.1 °F 41.0 °F 93% 30.15 in 6.2 mi NNE 4.6 mph - N/A   Partly Cloudy
7:30 AM 44.6 °F 39.7 °F 39.2 °F 81% 30.18 in 6.2 mi NNE 9.2 mph - N/A   Partly Cloudy
8:00 AM 48 °F - 42 °F 75% 30.20 in 22 mi NNE 6.9 mph - -  
8:00 AM 44.6 °F 40.7 °F 41.0 °F 87% 30.18 in - NNE 6.9 mph - N/A   Clear
8:30 AM 44.6 °F - 42.8 °F 93% 30.18 in - Variable 1.2 mph - N/A   Clear
9:00 AM 48.2 °F - 42.8 °F 82% 30.18 in - Variable 2.3 mph - N/A   Clear
9:30 AM 48.2 °F - 41.0 °F 76% 30.18 in - NE 3.5 mph - N/A   Clear
10:00 AM 50.0 °F - 41.0 °F 71% 30.18 in - NE 3.5 mph - N/A   Clear
10:30 AM 51.8 °F - 42.8 °F 71% 30.18 in - ENE 5.8 mph - N/A   Clear
11:00 AM 53.6 °F - 42.8 °F 67% 30.18 in - Variable 3.5 mph - N/A   Clear
12:00 PM 57.2 °F - 44.6 °F 63% 30.21 in - ENE 5.8 mph - N/A   Clear
12:30 PM 57.2 °F - 46.4 °F 67% 30.18 in - ENE 3.5 mph - N/A   Clear
1:00 PM 59.0 °F - 44.6 °F 59% 30.21 in - Variable 3.5 mph - N/A   Clear
1:30 PM 59.0 °F - 44.6 °F 59% 30.18 in 6.2 mi ENE 5.8 mph - N/A   Partly Cloudy
2:00 PM 62 °F - 45 °F 42% 30.19 in 22 mi ENE 6.9 mph - -   Scattered Clouds
2:00 PM 60.8 °F - 44.6 °F 55% 30.18 in 6.2 mi Variable 5.8 mph - N/A   Partly Cloudy
2:30 PM 62.6 °F - 42.8 °F 48% 30.18 in 6.2 mi ENE 5.8 mph - N/A   Partly Cloudy
3:00 PM 62.6 °F - 46.4 °F 55% 30.18 in 6.2 mi ENE 4.6 mph - N/A   Partly Cloudy
3:30 PM 64.4 °F - 48.2 °F 56% 30.18 in 6.2 mi North 5.8 mph - N/A   Partly Cloudy
4:00 PM 62.6 °F - 46.4 °F 55% 30.18 in 6.2 mi North 8.1 mph - N/A   Partly Cloudy
4:30 PM 64.4 °F - 46.4 °F 52% 30.18 in 6.2 mi NNE 6.9 mph - N/A   Partly Cloudy
5:00 PM 64.4 °F - 42.8 °F 45% 30.18 in 6.2 mi NNW 6.9 mph - N/A   Partly Cloudy
5:30 PM 62.6 °F - 46.4 °F 55% 30.15 in 6.2 mi Variable 6.9 mph - N/A   Partly Cloudy
6:00 PM 62.6 °F - 46.4 °F 55% 30.15 in 6.2 mi WNW 4.6 mph - N/A   Partly Cloudy
6:30 PM 62.6 °F - 46.4 °F 55% 30.15 in 6.2 mi West 9.2 mph - N/A   Partly Cloudy
7:00 PM 60.8 °F - 46.4 °F 59% 30.15 in 6.2 mi West 9.2 mph - N/A   Partly Cloudy
7:30 PM 60.8 °F - 41.0 °F 48% 30.15 in 6.2 mi North 6.9 mph - N/A   Partly Cloudy
8:00 PM 62 °F - 39 °F 30% 30.16 in 22 mi North 11.5 mph - -   Scattered Clouds
8:00 PM 60.8 °F - 41.0 °F 48% 30.15 in 6.2 mi North 10.4 mph - N/A   Partly Cloudy
8:30 PM 59.0 °F - 39.2 °F 48% 30.15 in 6.2 mi North 12.7 mph - N/A   Partly Cloudy
9:00 PM 57.2 °F - 39.2 °F 51% 30.18 in - North 12.7 mph - N/A   Clear
9:30 PM 55.4 °F - 39.2 °F 54% 30.18 in - North 13.8 mph - N/A   Clear
10:00 PM 53.6 °F - 39.2 °F 58% 30.18 in - North 13.8 mph - N/A   Clear
10:30 PM 51.8 °F - 39.2 °F 62% 30.21 in - North 13.8 mph - N/A   Clear
11:00 PM 51.8 °F - 41.0 °F 67% 30.21 in - North 15.0 mph - N/A   Clear
11:30 PM 50.0 °F - 41.0 °F 71% 30.21 in - North 16.1 mph - N/A   Clear